Location: Kershaw
(34.5481°N, 80.5823°W)
Time: 14:58:04
(UTC+00:00)

Transit 4A - Pass Details

Date: 09 October 2022
Orbit: 871 x 972 km, 66.8° (Epoch: 29 November)

Event Time Altitude Azimuth Distance (km) Brightness Sun altitude
Rises 09:53:07 0° 347° (NNW) 3,480 10.8 -19.3°
Reaches altitude 10° 09:56:16 10° 3° (N) 2,530 10.3 -18.7°
Maximum altitude 10:00:37 21° 51° (NE) 1,848 10.1 -17.8°
Drops below altitude 10° 10:04:56 10° 100° (E) 2,516 11.4 -16.9°
Sets 10:08:02 0° 116° (ESE) 3,456 12.0 -16.3°
